Location: Pilipovskiye Korichintsy
(49.1833°N, 27.4667°E)
Time: 22:44:11
(UTC+00:00)

Cosmos 1697 Rocket - Pass Details

Date: 14 July 2020
Orbit: 834 x 842 km, 71.0° (Epoch: 10 August)

Event Time Altitude Azimuth Distance (km) Brightness Sun altitude
Rises 00:25:47 0° 329° (NNW) 3,399 6.2 -13.5°
Reaches altitude 10° 00:28:16 10° 326° (NW) 2,459 5.4 -13.3°
Maximum altitude 00:33:49 62° 247° (WSW) 940 2.7 -12.8°
Drops below altitude 10° 00:39:19 10° 168° (SSE) 2,439 4.7 -12.3°
Enters shadow 00:40:50 - 166° (SSE) 3,016 5.2 -12.2°
